Location: Gleizolles
(44.4833°N, 6.7667°E)
Time: 17:14:20
(UTC+00:00)

Altair - Pass Details

Date: 27 June 2024
Orbit: 1502 x 1681 km, 47.2° (Epoch: 13 July)

Event Time Altitude Azimuth Distance (km) Brightness Sun altitude
Rises 03:22:22 0° 278° (W) 4,656 9.6 -4.8°
Reaches altitude 10° 03:25:23 10° 280° (W) 3,688 9.1 -4.4°
Maximum altitude 03:34:44 78° 7° (N) 1,592 7.8 -3.1°
Drops below altitude 10° 03:44:26 10° 95° (E) 3,817 10.4 -1.7°
Sets 03:47:36 0° 96° (E) 4,827 11.0 -1.2°
